LOT225 EPWA-LOWW

Flight info

Callsign LOT225
Flight time N/A
Altitude 32000
Route EVINA N744 TUSIN DCT MIKOV MIKOV8W
Aircraft B738/M-SDE2E3FGHIRWXY/LB1

Departure

Time N/A
Airport Warsaw Chopin Airport (EPWA)

Arrival

Time 2026-05-03 20:15
Airport Vienna International Airport (LOWW)
Time Latitude Longitude Altitude Speed Heading
2026-05-03 20:15 48.10854 16.58015 608 ft 19 kts 344°
2026-05-03 20:15 48.10981 16.57961 618 ft 19 kts 344°
2026-05-03 20:15 48.11108 16.57906 612 ft 20 kts 344°
2026-05-03 20:15 48.11241 16.57850 607 ft 20 kts 344°
2026-05-03 20:16 48.11370 16.57795 614 ft 19 kts 344°
2026-05-03 20:16 48.11439 16.57767 609 ft 1 kts 344°
2026-05-03 20:16 48.11440 16.57766 609 ft 0 kts 344°
2026-05-03 20:18 48.11478 16.57750 616 ft 13 kts 344°
2026-05-03 20:18 48.11605 16.57697 608 ft 23 kts 344°
2026-05-03 20:18 48.11764 16.57629 614 ft 23 kts 344°
2026-05-03 20:19 48.11813 16.57608 603 ft 1 kts 345°
2026-05-03 20:19 48.11831 16.57595 602 ft 4 kts 314°
2026-05-03 20:19 48.11828 16.57504 601 ft 13 kts 253°
2026-05-03 20:19 48.11810 16.57363 601 ft 14 kts 281°
2026-05-03 20:20 48.11849 16.57233 601 ft 12 kts 295°
2026-05-03 20:20 48.11903 16.57136 599 ft 13 kts 295°
2026-05-03 20:20 48.11930 16.57055 598 ft 0 kts 296°
2026-05-03 20:21 48.11922 16.57078 599 ft 5 kts 296°
2026-05-03 20:21 48.11907 16.57123 599 ft 1 kts 296°
2026-05-03 20:21 48.11917 16.57095 599 ft 5 kts 296°
2026-05-03 20:21 48.11931 16.57071 598 ft 5 kts 323°
2026-05-03 20:22 48.11951 16.57075 599 ft 4 kts 27°
2026-05-03 20:22 48.11967 16.57086 599 ft 0 kts 25°